Location: Peebles
(55.6412°N, 3.1714°W)
Time: 10:34:50
(UTC+01:00)

Cosmos 1610 Rocket - Pass Details

Date: 26 September 2021
Orbit: 952 x 1003 km, 82.9° (Epoch: 20 October)

Event Time Altitude Azimuth Distance (km) Brightness Sun altitude
Rises 20:25:55 0° 188° (S) 3,662 7.4 -12.7°
Reaches altitude 10° 20:28:25 10° 188° (S) 2,711 6.7 -13.1°
Maximum altitude 20:34:38 89° 98° (E) 972 4.5 -13.9°
Drops below altitude 10° 20:40:50 10° 12° (NNE) 2,700 6.9 -14.7°
Sets 20:43:20 0° 12° (NNE) 3,647 7.6 -15.1°
